• In Schweiz
  • Länderverzeichnis
  • Für 7 Tage
  • Wassertemperatur
  • Satellitenkarten
  • Wetterkarte
  • Widgets
  • user-avatar
    Anmelden

    Stündliche Wetter Kyurovschina

    Heute, 17 August, Freitag

    Zeit Temperatur Niederschläge Wind Luftdruck Luftfeuchtigkeit
    00:00 +15°C° 0 mm 2 m/S 759 mmHg 85%
    01:00 +15°C° 0 mm 2 m/S 759 mmHg 86%
    02:00 +14°C° 0 mm 2 m/S 759 mmHg 88%
    03:00 +14°C° 0 mm 2 m/S 759 mmHg 89%
    04:00 +14°C° 0 mm 2 m/S 760 mmHg 90%
    05:00 +14°C° 0 mm 2 m/S 760 mmHg 91%
    06:00 +16°C° 0 mm 2 m/S 760 mmHg 85%
    07:00 +17°C° 0 mm 2 m/S 760 mmHg 79%
    08:00 +19°C° 0 mm 3 m/S 760 mmHg 74%
    09:00 +20°C° 0 mm 3 m/S 760 mmHg 68%
    10:00 +22°C° 0 mm 3 m/S 760 mmHg 63%
    11:00 +24°C° 0 mm 3 m/S 759 mmHg 58%
    12:00 +24°C° 0 mm 3 m/S 759 mmHg 56%
    13:00 +25°C° 0 mm 3 m/S 759 mmHg 55%
    14:00 +26°C° 0 mm 3 m/S 759 mmHg 53%
    15:00 +25°C° 0 mm 3 m/S 759 mmHg 55%
    16:00 +25°C° 0 mm 3 m/S 758 mmHg 57%
    17:00 +25°C° 0 mm 3 m/S 758 mmHg 59%
    18:00 +23°C° 0 mm 2 m/S 758 mmHg 66%
    19:00 +21°C° 0 mm 2 m/S 758 mmHg 74%
    20:00 +19°C° 0 mm 2 m/S 758 mmHg 81%
    21:00 +18°C° 0 mm 2 m/S 758 mmHg 83%
    22:00 +18°C° 0 mm 2 m/S 758 mmHg 85%
    23:00 +17°C° 0 mm 2 m/S 758 mmHg 88%

    Morgen, 18 August, Samstag

    Zeit Temperatur Niederschläge Wind Luftdruck Luftfeuchtigkeit
    00:00 +17°C° 0 mm 2 m/S 758 mmHg 89%
    01:00 +16°C° 0 mm 2 m/S 758 mmHg 90%
    02:00 +16°C° 0 mm 3 m/S 758 mmHg 91%
    03:00 +16°C° 0 mm 3 m/S 758 mmHg 92%
    04:00 +16°C° 0 mm 3 m/S 757 mmHg 93%
    05:00 +16°C° 0 mm 3 m/S 757 mmHg 94%
    06:00 +17°C° 0 mm 3 m/S 757 mmHg 89%
    07:00 +19°C° 0 mm 3 m/S 757 mmHg 83%
    08:00 +20°C° 0 mm 3 m/S 757 mmHg 77%
    09:00 +22°C° 0 mm 3 m/S 757 mmHg 72%
    10:00 +24°C° 0 mm 3 m/S 757 mmHg 67%
    11:00 +26°C° 0 mm 3 m/S 757 mmHg 62%
    12:00 +26°C° 0,2 mm 3 m/S 756 mmHg 62%
    13:00 +26°C° 0,2 mm 3 m/S 756 mmHg 62%
    14:00 +27°C° 0,2 mm 3 m/S 756 mmHg 62%
    15:00 +26°C° 0,6 mm 3 m/S 756 mmHg 67%
    16:00 +25°C° 0,6 mm 3 m/S 755 mmHg 72%
    17:00 +25°C° 0,6 mm 3 m/S 755 mmHg 77%
    18:00 +22°C° 0,1 mm 3 m/S 755 mmHg 83%
    19:00 +21°C° 0,1 mm 2 m/S 755 mmHg 88%
    20:00 +20°C° 0,1 mm 2 m/S 755 mmHg 93%
    21:00 +19°C° 0,1 mm 2 m/S 754 mmHg 94%
    22:00 +19°C° 0,1 mm 2 m/S 754 mmHg 95%
    23:00 +18°C° 0,1 mm 2 m/S 754 mmHg 97%

    übermorgen, 19 August, Sonntag

    Zeit Temperatur Niederschläge Wind Luftdruck Luftfeuchtigkeit
    00:00 +18°C° 0 mm 2 m/S 754 mmHg 97%
    01:00 +18°C° 0 mm 2 m/S 754 mmHg 97%
    02:00 +18°C° 0 mm 2 m/S 754 mmHg 97%
    03:00 +17°C° 0 mm 2 m/S 754 mmHg 97%
    04:00 +17°C° 0 mm 2 m/S 754 mmHg 97%
    05:00 +17°C° 0 mm 2 m/S 753 mmHg 97%
    06:00 +18°C° 0 mm 2 m/S 753 mmHg 94%
    07:00 +19°C° 0 mm 3 m/S 753 mmHg 90%
    08:00 +20°C° 0 mm 3 m/S 753 mmHg 86%
    09:00 +21°C° 0,2 mm 3 m/S 753 mmHg 80%
    10:00 +22°C° 0,2 mm 4 m/S 753 mmHg 73%
    11:00 +23°C° 0,2 mm 4 m/S 753 mmHg 66%
    12:00 +23°C° 0,1 mm 4 m/S 752 mmHg 62%
    13:00 +23°C° 0,1 mm 5 m/S 752 mmHg 57%
    14:00 +25°C° 0,1 mm 5 m/S 752 mmHg 52%
    15:00 +22°C° 0,4 mm 5 m/S 752 mmHg 63%
    16:00 +21°C° 0,4 mm 4 m/S 752 mmHg 74%
    17:00 +19°C° 0,4 mm 4 m/S 752 mmHg 85%
    18:00 +18°C° 0,3 mm 4 m/S 752 mmHg 88%
    19:00 +18°C° 0,3 mm 4 m/S 752 mmHg 92%
    20:00 +17°C° 0,3 mm 3 m/S 752 mmHg 95%
    21:00 +16°C° 0 mm 3 m/S 752 mmHg 95%
    22:00 +16°C° 0 mm 3 m/S 753 mmHg 94%
    23:00 +14°C° 0 mm 3 m/S 753 mmHg 94%

    20 August, Montag

    Zeit Temperatur Niederschläge Wind Luftdruck Luftfeuchtigkeit
    00:00 +14°C° 0 mm 3 m/S 753 mmHg 94%
    01:00 +13°C° 0 mm 3 m/S 753 mmHg 94%
    02:00 +12°C° 0 mm 3 m/S 753 mmHg 94%
    03:00 +12°C° 0 mm 3 m/S 754 mmHg 94%
    04:00 +12°C° 0 mm 3 m/S 754 mmHg 94%
    05:00 +13°C° 0 mm 2 m/S 754 mmHg 94%
    06:00 +14°C° 0 mm 2 m/S 755 mmHg 90%
    07:00 +15°C° 0 mm 2 m/S 755 mmHg 86%
    08:00 +17°C° 0 mm 2 m/S 755 mmHg 82%
    09:00 +18°C° 0 mm 2 m/S 755 mmHg 71%
    10:00 +19°C° 0 mm 2 m/S 756 mmHg 61%
    11:00 +21°C° 0 mm 2 m/S 756 mmHg 50%
    12:00 +21°C° 0 mm 2 m/S 756 mmHg 49%
    13:00 +21°C° 0 mm 2 m/S 756 mmHg 48%
    14:00 +23°C° 0 mm 2 m/S 756 mmHg 46%
    15:00 +21°C° 0 mm 2 m/S 756 mmHg 48%
    16:00 +22°C° 0 mm 1 m/S 756 mmHg 50%
    17:00 +22°C° 0 mm 1 m/S 756 mmHg 53%
    18:00 +20°C° 0 mm 1 m/S 756 mmHg 58%
    19:00 +18°C° 0 mm 1 m/S 756 mmHg 64%
    20:00 +16°C° 0 mm 1 m/S 756 mmHg 70%
    21:00 +16°C° 0 mm 1 m/S 756 mmHg 72%
    22:00 +16°C° 0 mm 1 m/S 756 mmHg 73%
    23:00 +15°C° 0 mm 2 m/S 756 mmHg 74%

    21 August, Dienstag

    Zeit Temperatur Niederschläge Wind Luftdruck Luftfeuchtigkeit
    00:00 +15°C° 0 mm 2 m/S 756 mmHg 78%
    01:00 +14°C° 0 mm 2 m/S 756 mmHg 81%
    02:00 +14°C° 0 mm 2 m/S 756 mmHg 85%
    03:00 +14°C° 0 mm 2 m/S 756 mmHg 88%
    04:00 +13°C° 0 mm 2 m/S 756 mmHg 91%
    05:00 +13°C° 0 mm 2 m/S 756 mmHg 94%
    06:00 +14°C° 0 mm 2 m/S 756 mmHg 88%
    07:00 +16°C° 0 mm 2 m/S 756 mmHg 82%
    08:00 +17°C° 0 mm 2 m/S 756 mmHg 76%
    09:00 +19°C° 0 mm 3 m/S 756 mmHg 69%
    10:00 +20°C° 0 mm 3 m/S 756 mmHg 62%
    11:00 +21°C° 0 mm 3 m/S 756 mmHg 55%
    12:00 +22°C° 0 mm 4 m/S 755 mmHg 54%
    13:00 +22°C° 0 mm 4 m/S 755 mmHg 53%
    14:00 +22°C° 0 mm 4 m/S 755 mmHg 51%
    15:00 +22°C° 0 mm 4 m/S 754 mmHg 53%
    16:00 +22°C° 0 mm 4 m/S 754 mmHg 54%
    17:00 +22°C° 0 mm 4 m/S 753 mmHg 55%
    18:00 +20°C° 0 mm 4 m/S 753 mmHg 61%
    19:00 +19°C° 0 mm 3 m/S 753 mmHg 67%
    20:00 +17°C° 0 mm 3 m/S 752 mmHg 74%
    21:00 +17°C° 0 mm 3 m/S 752 mmHg 75%
    22:00 +17°C° 0 mm 4 m/S 752 mmHg 76%
    23:00 +17°C° 0 mm 4 m/S 752 mmHg 77%

    22 August, Mittwoch

    Zeit Temperatur Niederschläge Wind Luftdruck Luftfeuchtigkeit
    00:00 +17°C° 0,1 mm 4 m/S 752 mmHg 82%
    01:00 +17°C° 0,1 mm 4 m/S 751 mmHg 86%
    02:00 +17°C° 0,1 mm 4 m/S 751 mmHg 91%
    03:00 +18°C° 0 mm 4 m/S 751 mmHg 92%
    04:00 +17°C° 0 mm 5 m/S 751 mmHg 92%
    05:00 +17°C° 0 mm 5 m/S 751 mmHg 93%
    06:00 +17°C° 0 mm 5 m/S 751 mmHg 91%
    07:00 +19°C° 0 mm 5 m/S 751 mmHg 89%
    08:00 +19°C° 0 mm 5 m/S 751 mmHg 87%
    09:00 +19°C° 0,1 mm 5 m/S 751 mmHg 85%
    10:00 +20°C° 0,1 mm 5 m/S 751 mmHg 82%
    11:00 +20°C° 0,1 mm 5 m/S 751 mmHg 80%
    12:00 +21°C° 0,2 mm 5 m/S 751 mmHg 76%
    13:00 +21°C° 0,2 mm 5 m/S 751 mmHg 73%
    14:00 +22°C° 0,2 mm 5 m/S 751 mmHg 70%
    15:00 +22°C° 0,1 mm 5 m/S 752 mmHg 67%
    16:00 +22°C° 0,1 mm 5 m/S 752 mmHg 65%
    17:00 +22°C° 0,1 mm 5 m/S 752 mmHg 62%
    18:00 +20°C° 0 mm 4 m/S 752 mmHg 69%
    19:00 +19°C° 0 mm 3 m/S 752 mmHg 75%
    20:00 +17°C° 0 mm 3 m/S 753 mmHg 82%
    21:00 +16°C° 0 mm 3 m/S 753 mmHg 85%
    22:00 +16°C° 0 mm 3 m/S 753 mmHg 88%
    23:00 +15°C° 0 mm 2 m/S 754 mmHg 91%
    Mehr zeigen